"Sample Date","Sample Time","Sample Value","Units","Flow Rate","Sample Interval","Number Channels","Micron Size 0","Counts/Channel 0","Micron Size 1","Counts/Channel 1","Micron Size 2","Counts/Channel 2","Micron Size 3","Counts/Channel 3","Micron Size 4","Counts/Channel 4","Micron Size 5","Counts/Channel 5","Micron Size 6","Counts/Channel 6","Micron Size 7","Counts/Channel 7","Micron Size 8","Counts/Channel 8","Micron Size 9","Counts/Channel 9","Micron Size 10","Counts/Channel 10","Micron Size 11","Counts/Channel 11","Micron Size 12","Counts/Channel 12","Micron Size 13","Counts/Channel 13","Micron Size 14","Counts/Channel 14","Micron Size 15","Counts/Channel 15","Micron Size 16","Counts/Channel 16","Micron Size 17","Counts/Channel 17","Micron Size 18","Counts/Channel 18","Micron Size 19","Counts/Channel 19","Micron Size 20","Counts/Channel 20","Micron Size 21","Counts/Channel 21","Micron Size 22","Counts/Channel 22","Micron Size 23","Counts/Channel 23","Micron Size 24","Counts/Channel 24","Micron Size 25","Counts/Channel 25","Micron Size 26","Counts/Channel 26","Micron Size 27","Counts/Channel 27","Micron Size 28","Counts/Channel 28","Micron Size 29","Counts/Channel 29","Micron Size 30","Counts/Channel 30","Micron Size 31","Counts/Channel 31"
"04/01/08","07:00:00",88900.000,"cc",28355.869,6.00,6,0.100,78131.000,0.200,7975.000,0.300,1308.000,0.500,1088.000,1.000,398.000,5.000,0
"04/01/08","07:00:06",56557.000,"cc",28303.115,6.00,6,0.100,48948.000,0.200,5106.000,0.300,1098.000,0.500,1057.000,1.000,348.000,5.000,0
"04/01/08","07:00:12",28231.000,"cc",28297.133,6.00,6,0.100,23034.000,0.200,2846.000,0.300,1003.000,0.500,975.000,1.000,373.000,5.000,0
"04/01/08","07:00:18",24475.000,"cc",28250.000,6.00,6,0.100,19404.000,0.200,2615.000,0.300,1074.000,0.500,1036.000,1.000,346.000,5.000,0
"04/01/08","07:00:24",18319.000,"cc",28349.652,6.00,6,0.100,14065.000,0.200,1950.000,0.300,964.000,0.500,1030.000,1.000,310.000,5.000,0
"04/01/08","07:00:30",17836.000,"cc",28313.828,6.00,6,0.100,13484.000,0.200,2041.000,0.300,940.000,0.500,1057.000,1.000,314.000,5.000,0
"04/01/08","07:00:36",17098.000,"cc",28319.604,6.00,6,0.100,12807.000,0.200,1930.000,0.300,1021.000,0.500,1037.000,1.000,303.000,5.000,0
"04/01/08","07:00:42",16317.000,"cc",28360.488,6.00,6,0.100,12004.000,0.200,1910.000,0.300,985.000,0.500,1035.000,1.000,383.000,5.000,0
"04/01/08","07:00:48",13494.000,"cc",28281.832,6.00,6,0.100,9609.000,0.200,1659.000,0.300,933.000,0.500,976.000,1.000,317.000,5.000,0
"04/01/08","07:00:54",12792.000,"cc",28293.139,6.00,6,0.100,8900.000,0.200,1603.000,0.300,935.000,0.500,1007.000,1.000,347.000,5.000,0
"04/01/08","07:01:00",11587.000,"cc",28293.367,6.00,6,0.100,7808.000,0.200,1538.000,0.300,943.000,0.500,989.000,1.000,309.000,5.000,0
"04/01/08","07:01:06",10924.000,"cc",28322.381,6.00,6,0.100,7317.000,0.200,1460.000,0.300,910.000,0.500,933.000,1.000,304.000,5.000,0
"04/01/08","07:01:12",10826.000,"cc",28296.441,6.00,6,0.100,7286.000,0.200,1426.000,0.300,917.000,0.500,877.000,1.000,320.000,5.000,0
"04/01/08","07:01:18",11326.000,"cc",28341.188,6.00,6,0.100,7565.000,0.200,1510.000,0.300,953.000,0.500,968.000,1.000,330.000,5.000,0
"04/01/08","07:01:24",12195.000,"cc",28302.207,6.00,6,0.100,8518.000,0.200,1515.000,0.300,917.000,0.500,929.000,1.000,316.000,5.000,0
"04/01/08","07:01:30",11955.000,"cc",28326.650,6.00,6,0.100,8164.000,0.200,1531.000,0.300,981.000,0.500,943.000,1.000,336.000,5.000,0
"04/01/08","07:01:36",14215.000,"cc",28371.012,6.00,6,0.100,10316.000,0.200,1660.000,0.300,959.000,0.500,928.000,1.000,352.000,5.000,0
"04/01/08","07:01:42",16231.000,"cc",28312.982,6.00,6,0.100,12122.000,0.200,1868.000,0.300,922.000,0.500,985.000,1.000,334.000,5.000,0
"04/01/08","07:01:48",15680.000,"cc",28311.914,6.00,6,0.100,11470.000,0.200,1767.000,0.300,1034.000,0.500,1056.000,1.000,353.000,5.000,0
"04/01/08","07:01:54",15423.000,"cc",28265.629,6.00,6,0.100,11265.000,0.200,1730.000,0.300,1011.000,0.500,1061.000,1.000,356.000,5.000,0
"04/01/08","07:02:00",24635.000,"cc",28357.881,6.00,6,0.100,19873.000,0.200,2464.000,0.300,985.000,0.500,998.000,1.000,315.000,5.000,0
"04/01/08","07:02:06",43162.000,"cc",28415.395,6.00,6,0.100,36724.000,0.200,4033.000,0.300,1018.000,0.500,1042.000,1.000,345.000,5.000,0
"04/01/08","07:02:12",47502.000,"cc",28236.609,6.00,6,0.100,40895.000,0.200,4325.000,0.300,1003.000,0.500,930.000,1.000,349.000,5.000,0
"04/01/08","07:02:18",33800.000,"cc",28260.289,6.00,6,0.100,28208.000,0.200,3289.000,0.300,1030.000,0.500,951.000,1.000,322.000,5.000,0
"04/01/08","07:02:24",23577.000,"cc",28316.031,6.00,6,0.100,18883.000,0.200,2358.000,0.300,959.000,0.500,1033.000,1.000,344.000,5.000,0
"04/01/08","07:02:30",21657.000,"cc",28323.668,6.00,6,0.100,17079.000,0.200,2247.000,0.300,944.000,0.500,1027.000,1.000,360.000,5.000,0
"04/01/08","07:02:36",21986.000,"cc",28313.930,6.00,6,0.100,17551.000,0.200,2193.000,0.300,928.000,0.500,992.000,1.000,322.000,5.000,0
"04/01/08","07:02:42",18859.000,"cc",28340.449,6.00,6,0.100,14411.000,0.200,2116.000,0.300,968.000,0.500,1033.000,1.000,331.000,5.000,0
"04/01/08","07:02:48",16645.000,"cc",28328.307,6.00,6,0.100,12644.000,0.200,1861.000,0.300,873.000,0.500,965.000,1.000,302.000,5.000,0
"04/01/08","07:02:54",15064.000,"cc",28320.283,6.00,6,0.100,11114.000,0.200,1749.000,0.300,920.000,0.500,974.000,1.000,307.000,5.000,0
"04/01/08","07:03:00",13102.000,"cc",28373.190,6.00,6,0.100,9291.000,0.200,1648.000,0.300,908.000,0.500,926.000,1.000,329.000,5.000,0
"04/01/08","07:03:06",12347.000,"cc",28211.988,6.00,6,0.100,8721.000,0.200,1466.000,0.300,915.000,0.500,911.000,1.000,334.000,5.000,0
"04/01/08","07:03:12",13999.000,"cc",28355.859,6.00,6,0.100,10101.000,0.200,1618.000,0.300,951.000,0.500,982.000,1.000,347.000,5.000,0
"04/01/08","07:03:18",15116.000,"cc",28348.816,6.00,6,0.100,11073.000,0.200,1742.000,0.300,963.000,0.500,1023.000,1.000,315.000,5.000,0
"04/01/08","07:03:24",13548.000,"cc",28298.346,6.00,6,0.100,9706.000,0.200,1648.000,0.300,906.000,0.500,937.000,1.000,351.000,5.000,0
"04/01/08","07:03:30",12037.000,"cc",28268.006,6.00,6,0.100,8314.000,0.200,1538.000,0.300,873.000,0.500,976.000,1.000,336.000,5.000,0
"04/01/08","07:03:36",11813.000,"cc",28336.852,6.00,6,0.100,8101.000,0.200,1434.000,0.300,929.000,0.500,993.000,1.000,356.000,5.000,0
"04/01/08","07:03:42",11732.000,"cc",28325.816,6.00,6,0.100,8130.000,0.200,1404.000,0.300,903.000,0.500,949.000,1.000,346.000,5.000,0
"04/01/08","07:03:48",11044.000,"cc",28318.842,6.00,6,0.100,7510.000,0.200,1446.000,0.300,847.000,0.500,915.000,1.000,326.000,5.000,0
"04/01/08","07:03:54",10797.000,"cc",28316.254,6.00,6,0.100,7299.000,0.200,1407.000,0.300,852.000,0.500,949.000,1.000,290.000,5.000,0
"04/01/08","07:04:00",11295.000,"cc",28332.994,6.00,6,0.100,7652.000,0.200,1421.000,0.300,987.000,0.500,923.000,1.000,312.000,5.000,0
"04/01/08","07:04:06",11304.000,"cc",28328.549,6.00,6,0.100,7591.000,0.200,1474.000,0.300,958.000,0.500,926.000,1.000,355.000,5.000,0
"04/01/08","07:04:12",11247.000,"cc",28241.844,6.00,6,0.100,7611.000,0.200,1501.000,0.300,938.000,0.500,903.000,1.000,294.000,5.000,0
"04/01/08","07:04:18",11852.000,"cc",28349.910,6.00,6,0.100,8016.000,0.200,1608.000,0.300,939.000,0.500,964.000,1.000,325.000,5.000,0
"04/01/08","07:04:24",12096.000,"cc",28336.139,6.00,6,0.100,8382.000,0.200,1532.000,0.300,886.000,0.500,1009.000,1.000,287.000,5.000,0
"04/01/08","07:04:30",12451.000,"cc",28290.570,6.00,6,0.100,8746.000,0.200,1537.000,0.300,913.000,0.500,937.000,1.000,318.000,5.000,0
"04/01/08","07:04:36",13542.000,"cc",28332.158,6.00,6,0.100,9591.000,0.200,1665.000,0.300,981.000,0.500,977.000,1.000,328.000,5.000,0
"04/01/08","07:04:42",16649.000,"cc",28311.279,6.00,6,0.100,12550.000,0.200,1828.000,0.300,917.000,0.500,1005.000,1.000,348.000,5.000,1.000
"04/01/08","07:04:48",16701.000,"cc",28297.154,6.00,6,0.100,12519.000,0.200,1849.000,0.300,974.000,0.500,1027.000,1.000,332.000,5.000,0
"04/01/08","07:04:54",18132.000,"cc",28322.779,6.00,6,0.100,13847.000,0.200,2028.000,0.300,949.000,0.500,982.000,1.000,326.000,5.000,0
"04/01/08","07:05:00",22604.000,"cc",28365.826,6.00,6,0.100,17947.000,0.200,2338.000,0.300,993.000,0.500,998.000,1.000,328.000,5.000,0
"04/01/08","07:05:06",30812.000,"cc",28285.486,6.00,6,0.100,25559.000,0.200,3075.000,0.300,925.000,0.500,932.000,1.000,321.000,5.000,0
"04/01/08","07:05:12",37374.000,"cc",28297.408,6.00,6,0.100,31505.000,0.200,3591.000,0.300,1014.000,0.500,964.000,1.000,300.000,5.000,0
"04/01/08","07:05:18",34798.000,"cc",28317.039,6.00,6,0.100,29125.000,0.200,3331.000,0.300,1002.000,0.500,1034.000,1.000,306.000,5.000,0
"04/01/08","07:05:24",19774.000,"cc",28321.240,6.00,6,0.100,15222.000,0.200,2221.000,0.300,962.000,0.500,1030.000,1.000,339.000,5.000,0
"04/01/08","07:05:30",16955.000,"cc",28319.119,6.00,6,0.100,12574.000,0.200,1960.000,0.300,1029.000,0.500,1008.000,1.000,384.000,5.000,0
"04/01/08","07:05:36",16482.000,"cc",28343.463,6.00,6,0.100,12099.000,0.200,1930.000,0.300,1076.000,0.500,1018.000,1.000,359.000,5.000,0
"04/01/08","07:05:42",14942.000,"cc",28352.465,6.00,6,0.100,10388.000,0.200,1911.000,0.300,1132.000,0.500,1122.000,1.000,389.000,5.000,0
"04/01/08","07:05:48",14403.000,"cc",28284.916,6.00,6,0.100,9970.000,0.200,1872.000,0.300,1079.000,0.500,1117.000,1.000,365.000,5.000,0
"04/01/08","07:05:54",15746.000,"cc",28335.416,6.00,6,0.100,11259.000,0.200,1873.000,0.300,1104.000,0.500,1120.000,1.000,390.000,5.000,0
"04/01/08","07:06:00",20628.000,"cc",28284.051,6.00,6,0.100,15853.000,0.200,2250.000,0.300,1032.000,0.500,1121.000,1.000,372.000,5.000,0
"04/01/08","07:06:06",18258.000,"cc",28308.379,6.00,6,0.100,13657.000,0.200,2015.000,0.300,1063.000,0.500,1165.000,1.000,358.000,5.000,0
"04/01/08","07:06:12",19792.000,"cc",28313.738,6.00,6,0.100,15311.000,0.200,2125.000,0.300,1012.000,0.500,1020.000,1.000,324.000,5.000,0
"04/01/08","07:06:18",18746.000,"cc",28282.369,6.00,6,0.100,14268.000,0.200,2070.000,0.300,973.000,0.500,1072.000,1.000,363.000,5.000,0
"04/01/08","07:06:24",19356.000,"cc",28293.328,6.00,6,0.100,14750.000,0.200,2140.000,0.300,1053.000,0.500,1087.000,1.000,326.000,5.000,0
"04/01/08","07:06:30",14184.000,"cc",28316.012,6.00,6,0.100,10018.000,0.200,1762.000,0.300,1001.000,0.500,1080.000,1.000,323.000,5.000,0
"04/01/08","07:06:36",11902.000,"cc",28317.260,6.00,6,0.100,7969.000,0.200,1585.000,0.300,952.000,0.500,1048.000,1.000,348.000,5.000,0
"04/01/08","07:06:42",11153.000,"cc",28295.287,6.00,6,0.100,7379.000,0.200,1480.000,0.300,970.000,0.500,994.000,1.000,330.000,5.000,0
"04/01/08","07:06:48",11437.000,"cc",28354.121,6.00,6,0.100,7520.000,0.200,1496.000,0.300,978.000,0.500,1069.000,1.000,374.000,5.000,0
"04/01/08","07:06:54",11439.000,"cc",28395.518,6.00,6,0.100,7421.000,0.200,1549.000,0.300,1017.000,0.500,1076.000,1.000,376.000,5.000,0
"04/01/08","07:07:00",10820.000,"cc",28329.408,6.00,6,0.100,6929.000,0.200,1544.000,0.300,945.000,0.500,1032.000,1.000,370.000,5.000,0
"04/01/08","07:07:06",11008.000,"cc",28277.777,6.00,6,0.100,7214.000,0.200,1441.000,0.300,956.000,0.500,1039.000,1.000,358.000,5.000,0
"04/01/08","07:07:12",10879.000,"cc",28285.643,6.00,6,0.100,7035.000,0.200,1503.000,0.300,1026.000,0.500,979.000,1.000,336.000,5.000,0
"04/01/08","07:07:18",10750.000,"cc",28266.699,6.00,6,0.100,7013.000,0.200,1422.000,0.300,955.000,0.500,995.000,1.000,365.000,5.000,0
"04/01/08","07:07:24",10878.000,"cc",28289.037,6.00,6,0.100,7089.000,0.200,1445.000,0.300,957.000,0.500,1059.000,1.000,328.000,5.000,0
"04/01/08","07:07:30",10928.000,"cc",28385.106,6.00,6,0.100,7130.000,0.200,1460.000,0.300,962.000,0.500,1013.000,1.000,363.000,5.000,0
"04/01/08","07:07:36",10715.000,"cc",28291.356,6.00,6,0.100,6984.000,0.200,1430.000,0.300,937.000,0.500,1022.000,1.000,342.000,5.000,0
"04/01/08","07:07:42",10997.000,"cc",28301.170,6.00,6,0.100,7261.000,0.200,1456.000,0.300,947.000,0.500,1002.000,1.000,331.000,5.000,0
"04/01/08","07:07:48",10971.000,"cc",28247.523,6.00,6,0.100,7297.000,0.200,1408.000,0.300,907.000,0.500,1031.000,1.000,328.000,5.000,0
"04/01/08","07:07:54",11127.000,"cc",28325.678,6.00,6,0.100,7205.000,0.200,1462.000,0.300,1003.000,0.500,1061.000,1.000,396.000,5.000,0
"04/01/08","07:08:00",11110.000,"cc",28336.488,6.00,6,0.100,7219.000,0.200,1562.000,0.300,959.000,0.500,1007.000,1.000,363.000,5.000,0
"04/01/08","07:08:06",11340.000,"cc",28382.848,6.00,6,0.100,7280.000,0.200,1566.000,0.300,1049.000,0.500,1089.000,1.000,356.000,5.000,0
"04/01/08","07:08:12",10426.000,"cc",28363.529,6.00,6,0.100,6888.000,0.200,1405.000,0.300,875.000,0.500,955.000,1.000,303.000,5.000,0
"04/01/08","07:08:18",10306.000,"cc",28318.121,6.00,6,0.100,6873.000,0.200,1351.000,0.300,824.000,0.500,931.000,1.000,327.000,5.000,0
"04/01/08","07:08:24",10640.000,"cc",28307.504,6.00,6,0.100,7059.000,0.200,1404.000,0.300,921.000,0.500,925.000,1.000,331.000,5.000,0
"04/01/08","07:08:30",10417.000,"cc",28267.291,6.00,6,0.100,6892.000,0.200,1341.000,0.300,857.000,0.500,965.000,1.000,362.000,5.000,0
"04/01/08","07:08:36",10353.000,"cc",28258.965,6.00,6,0.100,6844.000,0.200,1377.000,0.300,896.000,0.500,913.000,1.000,323.000,5.000,0
"04/01/08","07:08:42",10330.000,"cc",28356.963,6.00,6,0.100,6764.000,0.200,1387.000,0.300,933.000,0.500,933.000,1.000,313.000,5.000,0
"04/01/08","07:08:48",10730.000,"cc",28261.758,6.00,6,0.100,7083.000,0.200,1405.000,0.300,927.000,0.500,994.000,1.000,321.000,5.000,0
"04/01/08","07:08:54",10917.000,"cc",28321.176,6.00,6,0.100,7090.000,0.200,1468.000,0.300,992.000,0.500,1026.000,1.000,341.000,5.000,0
"04/01/08","07:09:00",11119.000,"cc",28313.695,6.00,6,0.100,7215.000,0.200,1530.000,0.300,927.000,0.500,1086.000,1.000,361.000,5.000,0
"04/01/08","07:09:06",11842.000,"cc",28281.566,6.00,6,0.100,7542.000,0.200,1616.000,0.300,1142.000,0.500,1173.000,1.000,369.000,5.000,0
"04/01/08","07:09:12",10967.000,"cc",28365.152,6.00,6,0.100,7117.000,0.200,1433.000,0.300,1033.000,0.500,1034.000,1.000,350.000,5.000,0
"04/01/08","07:09:18",10525.000,"cc",28289.461,6.00,6,0.100,6950.000,0.200,1360.000,0.300,899.000,0.500,1002.000,1.000,314.000,5.000,0
"04/01/08","07:09:24",10483.000,"cc",28353.229,6.00,6,0.100,6914.000,0.200,1408.000,0.300,911.000,0.500,936.000,1.000,314.000,5.000,0
"04/01/08","07:09:30",10376.000,"cc",28340.936,6.00,6,0.100,6850.000,0.200,1275.000,0.300,923.000,0.500,1005.000,1.000,323.000,5.000,0
"04/01/08","07:09:36",10571.000,"cc",28273.523,6.00,6,0.100,6941.000,0.200,1354.000,0.300,956.000,0.500,956.000,1.000,364.000,5.000,0
"04/01/08","07:09:42",10705.000,"cc",28318.916,6.00,6,0.100,6969.000,0.200,1454.000,0.300,978.000,0.500,969.000,1.000,335.000,5.000,0
"04/01/08","07:09:48",10608.000,"cc",28347.623,6.00,6,0.100,7012.000,0.200,1400.000,0.300,919.000,0.500,965.000,1.000,312.000,5.000,0
"04/01/08","07:09:54",10690.000,"cc",28288.236,6.00,6,0.100,6928.000,0.200,1445.000,0.300,966.000,0.500,1023.000,1.000,328.000,5.000,0
"04/01/08","07:10:00",10660.000,"cc",28256.627,6.00,6,0.100,6989.000,0.200,1427.000,0.300,927.000,0.500,969.000,1.000,348.000,5.000,0
"04/01/08","07:10:06",10592.000,"cc",28318.672,6.00,6,0.100,6974.000,0.200,1398.000,0.300,963.000,0.500,953.000,1.000,304.000,5.000,0
"04/01/08","07:10:12",10797.000,"cc",28299.361,6.00,6,0.100,7015.000,0.200,1414.000,0.300,1003.000,0.500,1003.000,1.000,362.000,5.000,0
"04/01/08","07:10:18",10662.000,"cc",28342.533,6.00,6,0.100,7123.000,0.200,1346.000,0.300,893.000,0.500,969.000,1.000,331.000,5.000,0
"04/01/08","07:10:24",10419.000,"cc",28314.502,6.00,6,0.100,6843.000,0.200,1366.000,0.300,934.000,0.500,958.000,1.000,318.000,5.000,0
"04/01/08","07:10:30",10791.000,"cc",28367.445,6.00,6,0.100,7123.000,0.200,1439.000,0.300,952.000,0.500,930.000,1.000,347.000,5.000,0
"04/01/08","07:10:36",10336.000,"cc",28266.891,6.00,6,0.100,6773.000,0.200,1364.000,0.300,923.000,0.500,953.000,1.000,323.000,5.000,0
"04/01/08","07:10:42",10397.000,"cc",28247.320,6.00,6,0.100,6814.000,0.200,1378.000,0.300,948.000,0.500,934.000,1.000,323.000,5.000,0
"04/01/08","07:10:48",10401.000,"cc",28331.010,6.00,6,0.100,6902.000,0.200,1345.000,0.300,878.000,0.500,975.000,1.000,301.000,5.000,0
"04/01/08","07:10:54",10275.000,"cc",28366.250,6.00,6,0.100,6834.000,0.200,1328.000,0.300,850.000,0.500,936.000,1.000,327.000,5.000,0
"04/01/08","07:11:00",10460.000,"cc",28355.273,6.00,6,0.100,6886.000,0.200,1394.000,0.300,879.000,0.500,952.000,1.000,349.000,5.000,0
"04/01/08","07:11:06",10208.000,"cc",28350.397,6.00,6,0.100,6729.000,0.200,1366.000,0.300,905.000,0.500,872.000,1.000,336.000,5.000,0
"04/01/08","07:11:12",10307.000,"cc",28339.902,6.00,6,0.100,6826.000,0.200,1305.000,0.300,926.000,0.500,926.000,1.000,324.000,5.000,0
"04/01/08","07:11:18",10510.000,"cc",28284.863,6.00,6,0.100,6949.000,0.200,1339.000,0.300,985.000,0.500,939.000,1.000,298.000,5.000,0
"04/01/08","07:11:24",10277.000,"cc",28258.277,6.00,6,0.100,6847.000,0.200,1310.000,0.300,865.000,0.500,940.000,1.000,315.000,5.000,0
"04/01/08","07:11:30",10210.000,"cc",28319.770,6.00,6,0.100,6728.000,0.200,1373.000,0.300,897.000,0.500,892.000,1.000,320.000,5.000,0
"04/01/08","07:11:36",10436.000,"cc",28350.787,6.00,6,0.100,6982.000,0.200,1371.000,0.300,920.000,0.500,849.000,1.000,314.000,5.000,0
"04/01/08","07:11:42",10196.000,"cc",28371.707,6.00,6,0.100,6703.000,0.200,1374.000,0.300,933.000,0.500,893.000,1.000,293.000,5.000,0
"04/01/08","07:11:48",10342.000,"cc",28265.166,6.00,6,0.100,6775.000,0.200,1376.000,0.300,944.000,0.500,939.000,1.000,308.000,5.000,0
"04/01/08","07:11:54",13763.000,"cc",28312.762,6.00,6,0.100,8433.000,0.200,2106.000,0.300,1425.000,0.500,1332.000,1.000,467.000,5.000,0
"04/01/08","07:12:00",13019.000,"cc",28303.895,6.00,6,0.100,8088.000,0.200,1900.000,0.300,1307.000,0.500,1276.000,1.000,448.000,5.000,0
"04/01/08","07:12:06",10495.000,"cc",28280.566,6.00,6,0.100,6953.000,0.200,1362.000,0.300,919.000,0.500,931.000,1.000,330.000,5.000,0
"04/01/08","07:12:12",10500.000,"cc",28394.701,6.00,6,0.100,6967.000,0.200,1356.000,0.300,915.000,0.500,961.000,1.000,301.000,5.000,0
"04/01/08","07:12:18",11074.000,"cc",28354.430,6.00,6,0.100,7217.000,0.200,1451.000,0.300,993.000,0.500,1050.000,1.000,363.000,5.000,0
"04/01/08","07:12:24",10866.000,"cc",28298.738,6.00,6,0.100,7090.000,0.200,1511.000,0.300,992.000,0.500,939.000,1.000,334.000,5.000,0
"04/01/08","07:12:30",10632.000,"cc",28299.510,6.00,6,0.100,7150.000,0.200,1280.000,0.300,942.000,0.500,955.000,1.000,305.000,5.000,0
"04/01/08","07:12:36",10379.000,"cc",28286.344,6.00,6,0.100,6842.000,0.200,1379.000,0.300,895.000,0.500,934.000,1.000,329.000,5.000,0
"04/01/08","07:12:42",10137.000,"cc",28305.291,6.00,6,0.100,6777.000,0.200,1286.000,0.300,852.000,0.500,919.000,1.000,303.000,5.000,0
"04/01/08","07:12:48",11096.000,"cc",28390.760,6.00,6,0.100,7181.000,0.200,1515.000,0.300,1082.000,0.500,974.000,1.000,344.000,5.000,0
"04/01/08","07:12:54",10571.000,"cc",28331.293,6.00,6,0.100,6989.000,0.200,1386.000,0.300,876.000,0.500,999.000,1.000,321.000,5.000,0
"04/01/08","07:13:00",10735.000,"cc",28295.023,6.00,6,0.100,7029.000,0.200,1429.000,0.300,995.000,0.500,957.000,1.000,325.000,5.000,0
"04/01/08","07:13:06",10317.000,"cc",28324.256,6.00,6,0.100,6849.000,0.200,1311.000,0.300,907.000,0.500,915.000,1.000,335.000,5.000,0
"04/01/08","07:13:12",10439.000,"cc",28286.231,6.00,6,0.100,6901.000,0.200,1364.000,0.300,946.000,0.500,921.000,1.000,307.000,5.000,0
"04/01/08","07:13:18",13074.000,"cc",28273.447,6.00,6,0.100,8126.000,0.200,2002.000,0.300,1295.000,0.500,1233.000,1.000,418.000,5.000,0
"04/01/08","07:13:24",11986.000,"cc",28298.691,6.00,6,0.100,7635.000,0.200,1659.000,0.300,1170.000,0.500,1162.000,1.000,360.000,5.000,0
"04/01/08","07:13:30",10821.000,"cc",28312.469,6.00,6,0.100,7081.000,0.200,1454.000,0.300,959.000,0.500,1029.000,1.000,298.000,5.000,0
"04/01/08","07:13:36",10428.000,"cc",28345.951,6.00,6,0.100,6971.000,0.200,1360.000,0.300,917.000,0.500,853.000,1.000,327.000,5.000,0
"04/01/08","07:13:42",10508.000,"cc",28416.059,6.00,6,0.100,6989.000,0.200,1349.000,0.300,920.000,0.500,923.000,1.000,327.000,5.000,0
"04/01/08","07:13:48",10447.000,"cc",28302.840,6.00,6,0.100,6958.000,0.200,1334.000,0.300,879.000,0.500,974.000,1.000,302.000,5.000,0
"04/01/08","07:13:54",10297.000,"cc",28213.541,6.00,6,0.100,6851.000,0.200,1306.000,0.300,899.000,0.500,933.000,1.000,308.000,5.000,0
"04/01/08","07:14:00",10609.000,"cc",28289.957,6.00,6,0.100,6970.000,0.200,1443.000,0.300,939.000,0.500,941.000,1.000,316.000,5.000,0
"04/01/08","07:14:06",10298.000,"cc",28386.533,6.00,6,0.100,6790.000,0.200,1397.000,0.300,915.000,0.500,902.000,1.000,294.000,5.000,0
"04/01/08","07:14:12",10676.000,"cc",28357.957,6.00,6,0.100,7114.000,0.200,1353.000,0.300,905.000,0.500,971.000,1.000,333.000,5.000,0
"04/01/08","07:14:18",10646.000,"cc",28342.664,6.00,6,0.100,7000.000,0.200,1427.000,0.300,947.000,0.500,930.000,1.000,342.000,5.000,0
"04/01/08","07:14:24",10803.000,"cc",28289.422,6.00,6,0.100,7169.000,0.200,1395.000,0.300,936.000,0.500,1005.000,1.000,298.000,5.000,0
"04/01/08","07:14:30",11432.000,"cc",28291.631,6.00,6,0.100,7256.000,0.200,1577.000,0.300,1040.000,0.500,1165.000,1.000,394.000,5.000,0
"04/01/08","07:14:36",10890.000,"cc",28260.951,6.00,6,0.100,7064.000,0.200,1480.000,0.300,960.000,0.500,1038.000,1.000,348.000,5.000,0
"04/01/08","07:14:42",10510.000,"cc",28347.006,6.00,6,0.100,6922.000,0.200,1419.000,0.300,878.000,0.500,978.000,1.000,313.000,5.000,0
"04/01/08","07:14:48",10583.000,"cc",28317.221,6.00,6,0.100,7075.000,0.200,1384.000,0.300,872.000,0.500,931.000,1.000,321.000,5.000,0
"04/01/08","07:14:54",10563.000,"cc",28298.797,6.00,6,0.100,6986.000,0.200,1400.000,0.300,915.000,0.500,946.000,1.000,316.000,5.000,0
"04/01/08","07:15:00",10681.000,"cc",28308.154,6.00,6,0.100,7037.000,0.200,1426.000,0.300,947.000,0.500,960.000,1.000,311.000,5.000,0
"04/01/08","07:15:06",10477.000,"cc",28364.320,6.00,6,0.100,6977.000,0.200,1339.000,0.300,911.000,0.500,958.000,1.000,292.000,5.000,0
"04/01/08","07:15:12",10198.000,"cc",28296.924,6.00,6,0.100,6807.000,0.200,1287.000,0.300,877.000,0.500,926.000,1.000,301.000,5.000,0
"04/01/08","07:15:18",10655.000,"cc",28316.590,6.00,6,0.100,6970.000,0.200,1438.000,0.300,927.000,0.500,968.000,1.000,352.000,5.000,0
"04/01/08","07:15:24",10698.000,"cc",28336.004,6.00,6,0.100,6971.000,0.200,1408.000,0.300,935.000,0.500,1038.000,1.000,346.000,5.000,0
"04/01/08","07:15:30",10759.000,"cc",28369.916,6.00,6,0.100,6965.000,0.200,1503.000,0.300,954.000,0.500,1011.000,1.000,326.000,5.000,0
"04/01/08","07:15:36",10609.000,"cc",28242.350,6.00,6,0.100,6968.000,0.200,1441.000,0.300,947.000,0.500,930.000,1.000,323.000,5.000,0
"04/01/08","07:15:42",10311.000,"cc",28314.102,6.00,6,0.100,6850.000,0.200,1329.000,0.300,867.000,0.500,965.000,1.000,300.000,5.000,0
"04/01/08","07:15:48",11460.000,"cc",28271.324,6.00,6,0.100,7381.000,0.200,1615.000,0.300,1063.000,0.500,1038.000,1.000,363.000,5.000,0
"04/01/08","07:15:54",12724.000,"cc",28344.281,6.00,6,0.100,8001.000,0.200,1860.000,0.300,1244.000,0.500,1229.000,1.000,390.000,5.000,0
"04/01/08","07:16:00",11439.000,"cc",28352.127,6.00,6,0.100,7439.000,0.200,1553.000,0.300,1081.000,0.500,1008.000,1.000,358.000,5.000,0
"04/01/08","07:16:06",10681.000,"cc",28354.070,6.00,6,0.100,7050.000,0.200,1403.000,0.300,939.000,0.500,978.000,1.000,311.000,5.000,0
"04/01/08","07:16:12",10948.000,"cc",28345.914,6.00,6,0.100,7156.000,0.200,1477.000,0.300,978.000,0.500,1021.000,1.000,316.000,5.000,0
"04/01/08","07:16:18",10926.000,"cc",28272.799,6.00,6,0.100,7179.000,0.200,1455.000,0.300,942.000,0.500,1012.000,1.000,338.000,5.000,0
"04/01/08","07:16:24",10492.000,"cc",28278.598,6.00,6,0.100,6986.000,0.200,1380.000,0.300,867.000,0.500,955.000,1.000,304.000,5.000,0
"04/01/08","07:16:30",11069.000,"cc",28319.488,6.00,6,0.100,7112.000,0.200,1553.000,0.300,996.000,0.500,1034.000,1.000,374.000,5.000,0
"04/01/08","07:16:36",10948.000,"cc",28304.066,6.00,6,0.100,7183.000,0.200,1442.000,0.300,955.000,0.500,1046.000,1.000,322.000,5.000,0